| time (UTC) | temp C | wind direction | speed KPH | gust KPH | rain 1hr cm | rain 24hr cm | rain mn cm | humidity % | barometer mb |
| 20260510071537 | 12 | 24 | 0.0 | 0.0 | 0.00 | 0.48 | 0.00 | 89 | 1009.7 |
| 20260510070035 | 12 | 24 | 0.0 | 0.0 | 0.00 | 0.48 | 0.00 | 89 | 1009.7 |
| 20260510064546 | 12 | 24 | 0.0 | 0.0 | 0.00 | 0.48 | 0.00 | 88 | 1009.6 |
| 20260510063033 | 12 | 23 | 0.0 | 3.2 | 0.00 | 0.48 | 0.00 | 88 | 1009.7 |
| 20260510061533 | 12 | 71 | 0.0 | 3.2 | 0.00 | 0.48 | 0.00 | 88 | 1009.7 |
| 20260510060033 | 12 | 5 | 0.0 | 0.0 | 0.00 | 0.48 | 0.00 | 88 | 1009.8 |
| 20260510054531 | 13 | 5 | 0.0 | 0.0 | 0.00 | 0.48 | 0.00 | 88 | 1009.8 |
| 20260510053041 | 13 | 5 | 0.0 | 0.0 | 0.00 | 0.48 | 0.00 | 88 | 1009.9 |
| 20260510051545 | 13 | 5 | 0.0 | 0.0 | 0.00 | 0.48 | 0.00 | 88 | 1010.0 |
| 20260510050031 | 13 | 5 | 0.0 | 0.0 | 0.00 | 0.48 | 0.00 | 88 | 1009.9 |
| 20260510044526 | 12 | 5 | 0.0 | 0.0 | 0.00 | 0.48 | 0.00 | 88 | 1009.8 |
| 20260510043025 | 12 | 5 | 0.0 | 0.0 | 0.00 | 0.48 | 0.00 | 88 | 1009.8 |
| 20260510041527 | 12 | 5 | 0.0 | 0.0 | 0.00 | 0.48 | 0.00 | 88 | 1009.7 |
| 20260510040022 | 12 | 5 | 0.0 | 0.0 | 0.00 | 0.48 | 0.00 | 88 | 1009.6 |
| 20260510034521 | 12 | 5 | 0.0 | 0.0 | 0.00 | 0.48 | 0.48 | 88 | 1009.5 |
| 20260510033021 | 12 | 5 | 0.0 | 0.0 | 0.00 | 0.48 | 0.48 | 87 | 1009.4 |
| 20260510031527 | 12 | 52 | 0.0 | 0.0 | 0.00 | 0.48 | 0.48 | 87 | 1009.2 |
| 20260510030020 | 12 | 52 | 0.0 | 1.6 | 0.00 | 0.48 | 0.48 | 87 | 1009.1 |
| 20260510024519 | 12 | 58 | 0.0 | 0.0 | 0.00 | 0.48 | 0.48 | 87 | 1009.0 |
| 20260510023019 | 12 | 58 | 0.0 | 0.0 | 0.00 | 0.48 | 0.48 | 86 | 1008.8 |
| 20260510021525 | 12 | 58 | 0.0 | 0.0 | 0.00 | 0.48 | 0.48 | 86 | 1008.9 |
| 20260510020025 | 13 | 58 | 0.0 | 0.0 | 0.00 | 0.48 | 0.48 | 86 | 1008.6 |
| 20260510014517 | 13 | 58 | 0.0 | 0.0 | 0.00 | 0.48 | 0.48 | 85 | 1008.5 |
| 20260510013018 | 13 | 58 | 0.0 | 0.0 | 0.00 | 0.48 | 0.48 | 85 | 1008.2 |
| 20260510011517 | 13 | 58 | 0.0 | 0.0 | 0.00 | 0.48 | 0.48 | 84 | 1008.2 |
| 20260510010016 | 13 | 58 | 0.0 | 0.0 | 0.00 | 0.48 | 0.48 | 84 | 1008.0 |
| 20260510004518 | 14 | 58 | 0.0 | 0.0 | 0.00 | 0.48 | 0.48 | 84 | 1007.9 |
| 20260510003015 | 14 | 58 | 0.0 | 0.0 | 0.00 | 0.48 | 0.48 | 83 | 1007.6 |
| 20260510001515 | 14 | 58 | 0.0 | 0.0 | 0.00 | 0.48 | 0.48 | 84 | 1007.4 |
| 20260510000018 | 15 | 58 | 0.0 | 0.0 | 0.00 | 0.48 | 0.48 | 83 | 1007.2 |
| 20260509234515 | 15 | 59 | 0.0 | 3.2 | 0.00 | 0.48 | 0.48 | 83 | 1007.1 |
| 20260509233013 | 15 | 78 | 0.0 | 8.0 | 0.00 | 0.48 | 0.48 | 83 | 1006.9 |
| 20260509231512 | 15 | 298 | 0.0 | 6.4 | 0.00 | 0.48 | 0.48 | 81 | 1007.0 |
| 20260509230010 | 16 | 53 | 0.0 | 11.3 | 0.00 | 0.48 | 0.48 | 81 | 1007.1 |
| 20260509224508 | 16 | 40 | 0.0 | 9.7 | 0.00 | 0.48 | 0.48 | 81 | 1007.2 |
| 20260509223010 | 16 | 57 | 0.0 | 3.2 | 0.00 | 0.48 | 0.48 | 80 | 1007.3 |
| 20260509221507 | 16 | 49 | 0.0 | 6.4 | 0.00 | 0.48 | 0.48 | 81 | 1007.4 |
| 20260509220008 | 16 | 79 | 0.0 | 4.8 | 0.00 | 0.48 | 0.48 | 80 | 1007.3 |
| 20260509214505 | 16 | 340 | 0.0 | 11.3 | 0.00 | 0.48 | 0.48 | 81 | 1007.5 |
| 20260509213009 | 17 | 200 | 0.0 | 8.0 | 0.00 | 0.48 | 0.48 | 79 | 1007.6 |
| 20260509211504 | 17 | 190 | 0.0 | 4.8 | 0.00 | 0.48 | 0.48 | 77 | 1007.5 |
| 20260509210005 | 17 | 155 | 0.0 | 12.9 | 0.00 | 0.48 | 0.48 | 79 | 1007.5 |
| 20260509204503 | 17 | 16 | 0.0 | 9.7 | 0.00 | 0.48 | 0.48 | 76 | 1007.5 |
| 20260509203100 | 17 | 90 | 0.0 | 6.4 | 0.00 | 0.48 | 0.48 | 81 | 1007.6 |
| 20260509201557 | 17 | 175 | 0.0 | 3.2 | 0.00 | 0.48 | 0.48 | 82 | 1007.9 |
| 20260509200109 | 16 | 285 | 0.0 | 8.0 | 0.00 | 0.48 | 0.48 | 81 | 1008.0 |
| 20260509194556 | 16 | 114 | 0.0 | 3.2 | 0.00 | 0.48 | 0.48 | 82 | 1008.3 |
| 20260509193153 | 16 | 135 | 0.0 | 12.9 | 0.00 | 0.48 | 0.48 | 84 | 1008.3 |
| 20260509191551 | 16 | 247 | 0.0 | 6.4 | 0.00 | 0.48 | 0.48 | 85 | 1008.4 |
| 20260509190049 | 16 | 78 | 0.0 | 4.8 | 0.00 | 0.48 | 0.48 | 86 | 1008.4 |
| 20260509184547 | 15 | 101 | 0.0 | 1.6 | 0.00 | 0.48 | 0.48 | 87 | 1008.4 |
| 20260509183100 | 15 | 101 | 0.0 | 3.2 | 0.00 | 0.48 | 0.48 | 88 | 1008.6 |
| 20260509181542 | 15 | 119 | 0.0 | 0.0 | 0.00 | 0.48 | 0.48 | 88 | 1008.6 |
| 20260509180041 | 15 | 94 | 0.0 | 3.2 | 0.00 | 0.48 | 0.48 | 88 | 1008.5 |
| 20260509174547 | 15 | 77 | 0.0 | 3.2 | 0.00 | 0.48 | 0.48 | 89 | 1008.4 |
| 20260509173042 | 14 | 81 | 0.0 | 4.8 | 0.00 | 0.48 | 0.48 | 91 | 1008.5 |
| 20260509171540 | 13 | 47 | 0.0 | 0.0 | 0.00 | 0.48 | 0.48 | 90 | 1008.6 |
| 20260509170033 | 13 | 47 | 0.0 | 0.0 | 0.00 | 0.48 | 0.48 | 90 | 1008.8 |
| 20260509164531 | 13 | 47 | 0.0 | 0.0 | 0.00 | 0.48 | 0.48 | 90 | 1008.7 |
| 20260509163042 | 13 | 49 | 0.0 | 0.0 | 0.00 | 0.48 | 0.48 | 90 | 1008.7 |
| 20260509161541 | 12 | 243 | 0.0 | 0.0 | 0.00 | 0.48 | 0.48 | 90 | 1008.7 |
| 20260509160030 | 12 | 243 | 0.0 | 0.0 | 0.00 | 0.48 | 0.48 | 90 | 1008.9 |
| 20260509154529 | 13 | 243 | 0.0 | 0.0 | 0.00 | 0.48 | 0.48 | 90 | 1009.2 |
| 20260509153043 | 12 | 243 | 0.0 | 0.0 | 0.00 | 0.48 | 0.48 | 90 | 1009.2 |
| 20260509151528 | 12 | 243 | 0.0 | 0.0 | 0.03 | 0.48 | 0.48 | 90 | 1009.4 |
| 20260509150037 | 12 | 243 | 0.0 | 0.0 | 0.03 | 0.48 | 0.48 | 90 | 1009.3 |
| 20260509144526 | 12 | 243 | 0.0 | 0.0 | 0.05 | 0.48 | 0.48 | 90 | 1009.6 |
| 20260509143026 | 12 | 243 | 0.0 | 0.0 | 0.05 | 0.48 | 0.48 | 90 | 1009.5 |
| 20260509141526 | 12 | 243 | 0.0 | 0.0 | 0.03 | 0.46 | 0.46 | 90 | 1009.4 |
| 20260509140030 | 11 | 282 | 0.0 | 0.0 | 0.05 | 0.46 | 0.46 | 90 | 1009.5 |
| 20260509134524 | 11 | 282 | 0.0 | 0.0 | 0.05 | 0.43 | 0.43 | 90 | 1009.6 |
| 20260509133024 | 11 | 282 | 0.0 | 0.0 | 0.08 | 0.43 | 0.43 | 90 | 1009.5 |
| 20260509131525 | 11 | 282 | 0.0 | 0.0 | 0.13 | 0.43 | 0.43 | 90 | 1009.7 |
| 20260509130023 | 11 | 282 | 0.0 | 0.0 | 0.10 | 0.41 | 0.41 | 89 | 1009.6 |
| 20260509124523 | 11 | 282 | 0.0 | 0.0 | 0.08 | 0.38 | 0.38 | 90 | 1009.9 |
| 20260509123022 | 11 | 281 | 0.0 | 0.0 | 0.08 | 0.36 | 0.36 | 89 | 1009.9 |
| 20260509121522 | 11 | 281 | 0.0 | 0.0 | 0.05 | 0.30 | 0.30 | 90 | 1010.0 |
| 20260509120028 | 11 | 280 | 0.0 | 0.0 | 0.08 | 0.30 | 0.30 | 90 | 1010.0 |
| 20260509114523 | 11 | 280 | 0.0 | 0.0 | 0.10 | 0.28 | 0.28 | 89 | 1010.1 |
| 20260509113020 | 11 | 280 | 0.0 | 0.0 | 0.13 | 0.28 | 0.28 | 89 | 1009.9 |
| 20260509111520 | 11 | 280 | 0.0 | 0.0 | 0.10 | 0.25 | 0.25 | 89 | 1009.8 |
| 20260509110019 | 11 | 280 | 0.0 | 0.0 | 0.08 | 0.23 | 0.23 | 89 | 1009.7 |
| 20260509104519 | 11 | 280 | 0.0 | 0.0 | 0.08 | 0.18 | 0.18 | 89 | 1009.7 |
| 20260509103018 | 11 | 280 | 0.0 | 0.0 | 0.05 | 0.15 | 0.15 | 88 | 1009.7 |
| 20260509101516 | 11 | 263 | 0.0 | 0.0 | 0.08 | 0.15 | 0.15 | 88 | 1009.7 |
| 20260509100017 | 11 | 263 | 0.0 | 0.0 | 0.08 | 0.15 | 0.15 | 88 | 1009.9 |
| 20260509094515 | 11 | 263 | 0.0 | 0.0 | 0.08 | 0.10 | 0.10 | 87 | 1010.1 |
| 20260509093014 | 11 | 263 | 0.0 | 0.0 | 0.10 | 0.10 | 0.10 | 86 | 1010.4 |
| 20260509091513 | 11 | 263 | 0.0 | 0.0 | 0.08 | 0.08 | 0.08 | 86 | 1010.5 |
| 20260509090012 | 11 | 263 | 0.0 | 0.0 | 0.08 | 0.08 | 0.08 | 85 | 1010.5 |
| 20260509084510 | 12 | 263 | 0.0 | 0.0 | 0.03 | 0.03 | 0.03 | 83 | 1010.4 |
| 20260509083014 | 12 | 263 | 0.0 | 4.8 | 0.00 | 0.00 | 0.00 | 81 | 1010.4 |
| 20260509081508 | 12 | 279 | 1.6 | 11.3 | 0.00 | 0.00 | 0.00 | 79 | 1010.1 |
| 20260509080009 | 12 | 40 | 0.0 | 1.6 | 0.00 | 0.00 | 0.00 | 79 | 1009.5 |
| 20260509074506 | 11 | 61 | 0.0 | 0.0 | 0.00 | 0.00 | 0.00 | 80 | 1008.9 |
| 20260509073006 | 11 | 61 | 0.0 | 3.2 | 0.00 | 0.00 | 0.00 | 79 | 1008.8 |